Terminal Aerodrome Forecast
Issued by NWS Blacksburg, VA

Home | Current Version | Previous Version | Text Only | Print | Product List | Glossary On
Versions: 1 2 3 4 5 6 7 8 9 10 11 12 13 14 15
000
FTUS41 KRNK 231731
TAFLYH
TAF
KLYH 231731Z 2318/2418 03007KT 6SM -RA OVC035
      TEMPO 2320/2324 3SM SHRA OVC009
     FM240000 06008KT 3SM RA OVC011
     FM241000 04010KT 1SM RA OVC007
     FM241200 04012KT 3SM SHRA OVC008
     FM241600 02013G26KT 5SM -SHRA OVC010=

USA.gov is the U.S. government's official web portal to all federal, state and local government web resources and services.